Time,TemperatureF,DewpointF,PressureIn,WindDirection,WindDirectionDegrees,WindSpeedMPH,WindSpeedGustMPH,Humidity,HourlyPrecipIn,Conditions,Clouds,dailyrainin,SoftwareType,DateUTC
2013-08-07 00:01:00,62.0,61.1,29.73,West,281,1.0,1.0,97,0.00,,BKN110,0.00,VWS V14.01,2013-08-07 05:01:00,
2013-08-07 00:06:00,62.0,61.1,29.72,West,281,0.0,1.0,97,0.00,,BKN110,0.00,VWS V14.01,2013-08-07 05:06:00,
2013-08-07 00:11:00,62.0,61.1,29.72,West,280,0.0,1.0,97,0.00,,BKN110,0.00,VWS V14.01,2013-08-07 05:11:00,
2013-08-07 00:16:00,61.9,61.0,29.72,WNW,293,0.0,1.0,97,0.00,,BKN110,0.00,VWS V14.01,2013-08-07 05:16:00,
2013-08-07 00:21:00,61.8,60.9,29.72,West,280,0.0,1.0,97,0.00,,BKN110,0.00,VWS V14.01,2013-08-07 05:21:00,
2013-08-07 00:26:00,61.7,60.8,29.72,WNW,288,1.0,1.0,97,0.00,,BKN110,0.00,VWS V14.01,2013-08-07 05:26:00,
2013-08-07 00:31:00,61.7,60.8,29.72,NW,308,1.0,2.0,97,0.00,,SCT120,0.00,VWS V14.01,2013-08-07 05:31:00,
2013-08-07 00:36:00,61.7,61.1,29.73,NW,308,0.0,2.0,98,0.00,,CLR,0.00,VWS V14.01,2013-08-07 05:36:00,
2013-08-07 00:41:00,61.6,60.7,29.73,WNW,295,0.0,3.0,97,0.00,,CLR,0.00,VWS V14.01,2013-08-07 05:41:00,
2013-08-07 00:46:00,61.6,60.7,29.73,WNW,297,0.0,3.0,97,0.00,,CLR,0.00,VWS V14.01,2013-08-07 05:46:00,
2013-08-07 00:51:00,61.5,60.6,29.73,West,264,0.0,3.0,97,0.00,,SCT120,0.00,VWS V14.01,2013-08-07 05:51:00,
2013-08-07 00:56:00,61.4,60.5,29.73,NW,316,1.0,3.0,97,0.00,,SCT120,0.00,VWS V14.01,2013-08-07 05:56:00,
2013-08-07 01:01:00,61.4,60.8,29.73,WNW,300,0.0,2.0,98,0.00,,SCT120,0.00,VWS V14.01,2013-08-07 06:01:00,
2013-08-07 01:06:00,61.3,60.4,29.73,WNW,297,0.0,2.0,97,0.00,,SCT120,0.00,VWS V14.01,2013-08-07 06:06:00,
2013-08-07 01:11:00,61.3,60.4,29.74,WNW,298,0.0,2.0,97,0.00,,SCT120,0.00,VWS V14.01,2013-08-07 06:11:00,
2013-08-07 01:16:00,61.3,60.7,29.74,WNW,297,0.0,2.0,98,0.00,,SCT120,0.00,VWS V14.01,2013-08-07 06:16:00,
2013-08-07 01:21:00,61.3,60.7,29.74,WNW,298,0.0,2.0,98,0.00,,SCT120,0.00,VWS V14.01,2013-08-07 06:21:00,
2013-08-07 01:26:00,61.2,60.6,29.74,WNW,298,0.0,2.0,98,0.00,,SCT120,0.00,VWS V14.01,2013-08-07 06:26:00,
2013-08-07 01:31:00,61.2,60.6,29.75,NW,308,0.0,1.0,98,0.00,,BKN120,0.00,VWS V14.01,2013-08-07 06:31:00,
2013-08-07 01:36:00,61.3,60.7,29.75,WNW,293,0.0,1.0,98,0.00,,BKN120,0.00,VWS V14.01,2013-08-07 06:36:00,
2013-08-07 01:41:00,61.4,60.8,29.75,WNW,295,0.0,1.0,98,0.00,,BKN120,0.00,VWS V14.01,2013-08-07 06:41:00,
2013-08-07 01:46:00,61.5,60.9,29.75,WNW,290,0.0,2.0,98,0.00,,BKN120,0.00,VWS V14.01,2013-08-07 06:46:00,
2013-08-07 01:51:00,61.6,61.0,29.75,WNW,290,0.0,2.0,98,0.00,,OVC110,0.00,VWS V14.01,2013-08-07 06:51:00,
2013-08-07 01:56:00,61.7,61.1,29.75,WNW,285,0.0,2.0,98,0.00,,BKN120,0.00,VWS V14.01,2013-08-07 06:56:00,
2013-08-07 02:01:00,61.7,61.1,29.75,WNW,297,0.0,1.0,98,0.00,,OVC110,0.00,VWS V14.01,2013-08-07 07:01:00,
2013-08-07 02:06:00,61.7,61.1,29.75,WNW,285,0.0,1.0,98,0.00,,OVC110,0.00,VWS V14.01,2013-08-07 07:06:00,
2013-08-07 02:11:00,61.7,61.1,29.75,NW,308,0.0,2.0,98,0.00,,OVC110,0.00,VWS V14.01,2013-08-07 07:11:00,
2013-08-07 02:16:00,61.6,61.0,29.75,NW,307,1.0,2.0,98,0.00,,BKN120,0.00,VWS V14.01,2013-08-07 07:16:00,
2013-08-07 02:21:00,61.5,60.9,29.75,NW,307,0.0,2.0,98,0.00,,OVC110,0.00,VWS V14.01,2013-08-07 07:21:00,
2013-08-07 02:26:00,61.4,60.8,29.75,NW,307,0.0,2.0,98,0.00,,OVC110,0.00,VWS V14.01,2013-08-07 07:26:00,
2013-08-07 02:31:00,61.3,60.7,29.75,WNW,290,0.0,1.0,98,0.00,,BKN110,0.00,VWS V14.01,2013-08-07 07:31:00,
2013-08-07 02:36:00,61.3,60.7,29.76,WNW,292,0.0,2.0,98,0.00,,BKN120,0.00,VWS V14.01,2013-08-07 07:36:00,
2013-08-07 02:41:00,61.2,60.6,29.76,WNW,284,0.0,2.0,98,0.00,,BKN120,0.00,VWS V14.01,2013-08-07 07:41:00,
2013-08-07 02:46:00,61.2,60.6,29.75,WNW,300,0.0,2.0,98,0.00,,BKN120,0.00,VWS V14.01,2013-08-07 07:46:00,
2013-08-07 02:51:00,61.1,60.5,29.75,West,267,0.0,2.0,98,0.00,,BKN120,0.00,VWS V14.01,2013-08-07 07:51:00,
2013-08-07 02:56:00,61.1,60.5,29.75,SE,125,0.0,2.0,98,0.00,,BKN120,0.00,VWS V14.01,2013-08-07 07:56:00,
2013-08-07 03:01:00,61.0,60.4,29.75,NW,305,0.0,2.0,98,0.00,,BKN120,0.00,VWS V14.01,2013-08-07 08:01:00,
2013-08-07 03:06:00,60.9,60.3,29.75,NNW,338,0.0,2.0,98,0.00,,BKN120,0.00,VWS V14.01,2013-08-07 08:06:00,
2013-08-07 03:11:00,60.8,60.2,29.76,NNW,338,0.0,2.0,98,0.00,,BKN120,0.00,VWS V14.01,2013-08-07 08:11:00,
2013-08-07 03:16:00,60.9,60.3,29.76,SW,224,0.0,2.0,98,0.00,,BKN110,0.00,VWS V14.01,2013-08-07 08:16:00,
2013-08-07 03:21:00,60.9,60.3,29.76,North,6,0.0,2.0,98,0.00,,BKN120,0.00,VWS V14.01,2013-08-07 08:21:00,
2013-08-07 03:26:00,60.9,60.3,29.76,NW,318,0.0,2.0,98,0.00,,BKN120,0.00,VWS V14.01,2013-08-07 08:26:00,
2013-08-07 03:31:00,60.9,60.3,29.76,NW,316,0.0,1.0,98,0.00,,BKN120,0.00,VWS V14.01,2013-08-07 08:31:00,
2013-08-07 03:36:00,60.9,60.3,29.76,NW,316,0.0,1.0,98,0.00,,SCT120,0.00,VWS V14.01,2013-08-07 08:36:00,
2013-08-07 03:41:00,60.9,60.3,29.76,WNW,299,1.0,2.0,98,0.00,,SCT120,0.00,VWS V14.01,2013-08-07 08:41:00,
2013-08-07 03:46:00,60.9,60.3,29.76,WNW,300,0.0,2.0,98,0.01,,SCT120,0.01,VWS V14.01,2013-08-07 08:46:00,
2013-08-07 03:51:00,60.8,60.2,29.77,WNW,290,1.0,2.0,98,0.01,,BKN110,0.01,VWS V14.01,2013-08-07 08:51:00,
2013-08-07 03:56:00,60.9,60.3,29.77,West,281,0.0,2.0,98,0.01,,BKN120,0.01,VWS V14.01,2013-08-07 08:56:00,
2013-08-07 04:01:00,60.8,60.2,29.78,WNW,282,0.0,1.0,98,0.01,,BKN110,0.01,VWS V14.01,2013-08-07 09:01:00,
2013-08-07 04:06:00,60.9,60.3,29.77,WNW,285,0.0,3.0,98,0.01,,BKN110,0.01,VWS V14.01,2013-08-07 09:06:00,
2013-08-07 04:11:00,60.9,60.3,29.77,WNW,301,0.0,3.0,98,0.01,,BKN110,0.01,VWS V14.01,2013-08-07 09:11:00,
2013-08-07 04:16:00,61.0,60.4,29.78,WNW,290,1.0,3.0,98,0.01,,BKN120,0.01,VWS V14.01,2013-08-07 09:16:00,
2013-08-07 04:21:00,60.9,60.3,29.78,West,281,0.0,3.0,98,0.01,,BKN110,0.01,VWS V14.01,2013-08-07 09:21:00,
2013-08-07 04:26:00,60.8,60.2,29.78,North,5,0.0,3.0,98,0.01,,BKN110,0.01,VWS V14.01,2013-08-07 09:26:00,
2013-08-07 04:31:00,60.8,60.2,29.78,North,353,0.0,2.0,98,0.01,,SCT110,0.01,VWS V14.01,2013-08-07 09:31:00,
2013-08-07 04:36:00,60.7,60.1,29.78,West,278,0.0,2.0,98,0.01,,BKN120,0.01,VWS V14.01,2013-08-07 09:36:00,
2013-08-07 04:41:00,60.7,60.1,29.79,WNW,290,0.0,3.0,98,0.01,,BKN120,0.01,VWS V14.01,2013-08-07 09:41:00,
2013-08-07 04:46:00,60.8,60.2,29.79,NNE,23,0.0,3.0,98,0.01,,BKN120,0.01,VWS V14.01,2013-08-07 09:46:00,
2013-08-07 04:51:00,60.8,60.2,29.78,NNE,20,0.0,3.0,98,0.01,,OVC014,0.01,VWS V14.01,2013-08-07 09:51:00,
2013-08-07 04:56:00,60.8,60.2,29.78,East,96,0.0,4.0,98,0.01,,SCT110,0.01,VWS V14.01,2013-08-07 09:56:00,
2013-08-07 05:01:00,60.7,60.1,29.79,WNW,290,0.0,4.0,98,0.00,,OVC014,0.01,VWS V14.01,2013-08-07 10:01:00,
2013-08-07 05:06:00,60.5,59.9,29.78,East,90,0.0,4.0,98,0.00,,OVC014,0.01,VWS V14.01,2013-08-07 10:06:00,
2013-08-07 05:11:00,60.3,59.7,29.79,NNW,345,1.0,5.0,98,0.00,,OVC014,0.01,VWS V14.01,2013-08-07 10:11:00,
2013-08-07 05:16:00,60.0,59.4,29.79,NW,319,0.0,5.0,98,0.00,,OVC014,0.01,VWS V14.01,2013-08-07 10:16:00,
2013-08-07 05:21:00,59.8,59.2,29.79,WSW,253,1.0,5.0,98,0.00,,OVC014,0.01,VWS V14.01,2013-08-07 10:21:00,
2013-08-07 05:26:00,59.6,59.0,29.79,NW,312,0.0,5.0,98,0.00,,OVC014,0.01,VWS V14.01,2013-08-07 10:26:00,
2013-08-07 05:31:00,59.4,58.8,29.80,West,266,0.0,1.0,98,0.00,,OVC014,0.01,VWS V14.01,2013-08-07 10:31:00,
2013-08-07 05:36:00,59.2,58.6,29.80,NW,312,1.0,2.0,98,0.00,,BKN120,0.01,VWS V14.01,2013-08-07 10:36:00,
2013-08-07 05:41:00,59.1,58.5,29.80,WNW,294,1.0,2.0,98,0.00,,BKN120,0.01,VWS V14.01,2013-08-07 10:41:00,
2013-08-07 05:46:00,59.1,58.5,29.80,WNW,297,0.0,2.0,98,0.00,,BKN120,0.01,VWS V14.01,2013-08-07 10:46:00,
2013-08-07 05:51:00,59.0,58.4,29.80,WNW,290,0.0,2.0,98,0.00,,BKN120,0.01,VWS V14.01,2013-08-07 10:51:00,
2013-08-07 05:56:00,58.9,58.3,29.81,West,275,0.0,3.0,98,0.00,,BKN120,0.01,VWS V14.01,2013-08-07 10:56:00,
2013-08-07 06:01:00,58.8,58.2,29.81,West,281,1.0,2.0,98,0.00,,BKN120,0.01,VWS V14.01,2013-08-07 11:01:00,
2013-08-07 06:06:00,58.7,58.1,29.81,NW,310,0.0,2.0,98,0.00,,BKN120,0.01,VWS V14.01,2013-08-07 11:06:00,
2013-08-07 06:11:00,58.7,58.1,29.81,NW,319,0.0,3.0,98,0.00,,BKN120,0.01,VWS V14.01,2013-08-07 11:11:00,
2013-08-07 06:16:00,58.7,58.1,29.82,West,264,0.0,3.0,98,0.00,,BKN120,0.01,VWS V14.01,2013-08-07 11:16:00,
2013-08-07 06:21:00,58.7,58.1,29.82,SW,229,0.0,3.0,98,0.00,,BKN120,0.01,VWS V14.01,2013-08-07 11:21:00,
2013-08-07 06:26:00,58.8,58.2,29.81,West,273,0.0,3.0,98,0.00,,BKN120,0.01,VWS V14.01,2013-08-07 11:26:00,
2013-08-07 06:31:00,58.7,58.1,29.82,WNW,295,1.0,4.0,98,0.00,,BKN120,0.01,VWS V14.01,2013-08-07 11:31:00,
2013-08-07 06:35:00,58.7,58.1,29.82,NW,314,0.0,4.0,98,0.00,,BKN110,0.01,VWS V14.01,2013-08-07 11:35:00,
2013-08-07 06:40:00,58.7,58.1,29.82,West,278,0.0,4.0,98,0.00,,BKN110,0.01,VWS V14.01,2013-08-07 11:40:00,
2013-08-07 06:45:00,58.6,58.0,29.82,ENE,76,0.0,4.0,98,0.00,,BKN110,0.01,VWS V14.01,2013-08-07 11:45:00,
2013-08-07 06:50:00,58.6,58.0,29.83,WNW,291,3.0,4.0,98,0.00,,BKN110,0.01,VWS V14.01,2013-08-07 11:50:00,
2013-08-07 06:55:00,58.7,58.1,29.83,West,278,1.0,4.0,98,0.00,,BKN110,0.01,VWS V14.01,2013-08-07 11:55:00,
2013-08-07 07:00:00,58.7,57.8,29.83,WNW,292,0.0,3.0,97,0.00,,BKN120,0.01,VWS V14.01,2013-08-07 12:00:00,
2013-08-07 07:05:00,58.7,57.8,29.84,WNW,299,0.0,3.0,97,0.00,,BKN110,0.01,VWS V14.01,2013-08-07 12:05:00,
2013-08-07 07:10:00,58.8,58.0,29.84,NW,307,0.0,4.0,97,0.00,,BKN110,0.01,VWS V14.01,2013-08-07 12:10:00,
2013-08-07 07:15:00,58.8,58.0,29.84,NNW,327,1.0,4.0,97,0.00,,BKN110,0.01,VWS V14.01,2013-08-07 12:15:00,
2013-08-07 07:20:00,58.8,58.0,29.85,East,89,0.0,4.0,97,0.00,,BKN110,0.01,VWS V14.01,2013-08-07 12:20:00,
2013-08-07 07:25:00,58.7,57.8,29.85,NE,47,6.0,6.0,97,0.00,,BKN110,0.01,VWS V14.01,2013-08-07 12:25:00,
2013-08-07 07:30:00,58.6,57.5,29.85,NW,319,3.0,4.0,96,0.00,,BKN110,0.01,VWS V14.01,2013-08-07 12:30:00,
2013-08-07 07:35:00,58.6,57.5,29.85,NE,39,0.0,4.0,96,0.00,,OVC014,0.01,VWS V14.01,2013-08-07 12:35:00,
2013-08-07 07:40:00,58.8,58.0,29.86,NE,49,2.0,4.0,97,0.00,,OVC014,0.01,VWS V14.01,2013-08-07 12:40:00,
2013-08-07 07:45:00,58.9,57.8,29.86,NW,323,0.0,4.0,96,0.00,,OVC014,0.01,VWS V14.01,2013-08-07 12:45:00,
2013-08-07 07:50:00,59.1,58.0,29.86,SE,125,0.0,4.0,96,0.00,,OVC014,0.01,VWS V14.01,2013-08-07 12:50:00,
2013-08-07 07:55:00,59.1,58.0,29.86,NE,41,3.0,5.0,96,0.00,,OVC014,0.01,VWS V14.01,2013-08-07 12:55:00,
2013-08-07 08:00:00,58.8,57.4,29.86,ENE,60,2.0,7.0,95,0.00,,OVC014,0.01,VWS V14.01,2013-08-07 13:00:00,
2013-08-07 08:05:00,58.6,57.2,29.87,NE,49,3.0,7.0,95,0.00,,OVC014,0.01,VWS V14.01,2013-08-07 13:05:00,
2013-08-07 08:10:00,58.6,56.9,29.87,ENE,58,1.0,7.0,94,0.00,,OVC014,0.01,VWS V14.01,2013-08-07 13:10:00,
2013-08-07 08:15:00,58.8,57.4,29.87,ENE,60,0.0,7.0,95,0.00,,OVC014,0.01,VWS V14.01,2013-08-07 13:15:00,
2013-08-07 08:20:00,59.3,57.9,29.87,SE,143,0.0,7.0,95,0.00,,OVC014,0.01,VWS V14.01,2013-08-07 13:20:00,
2013-08-07 08:25:00,59.8,58.4,29.87,ESE,107,0.0,7.0,95,0.00,,OVC014,0.01,VWS V14.01,2013-08-07 13:25:00,
2013-08-07 08:30:00,60.3,58.6,29.87,West,274,0.0,2.0,94,0.00,,OVC014,0.01,VWS V14.01,2013-08-07 13:30:00,
2013-08-07 08:35:00,60.5,58.2,29.87,NNW,335,1.0,8.0,92,0.00,,CLR,0.01,VWS V14.01,2013-08-07 13:35:00,
2013-08-07 08:40:00,60.5,57.9,29.88,NNW,345,2.0,8.0,91,0.00,,CLR,0.01,VWS V14.01,2013-08-07 13:40:00,
2013-08-07 08:45:00,60.4,57.8,29.88,SE,125,3.0,8.0,91,0.00,,CLR,0.01,VWS V14.01,2013-08-07 13:45:00,
2013-08-07 08:50:00,60.4,57.5,29.88,East,79,1.0,8.0,90,0.00,,CLR,0.01,VWS V14.01,2013-08-07 13:50:00,
2013-08-07 08:55:00,60.5,57.6,29.88,ESE,108,1.0,8.0,90,0.00,,CLR,0.01,VWS V14.01,2013-08-07 13:55:00,
2013-08-07 09:00:00,60.9,58.0,29.88,NW,323,2.0,6.0,90,0.00,,CLR,0.01,VWS V14.01,2013-08-07 14:00:00,
2013-08-07 09:05:00,61.2,57.9,29.88,NNE,12,2.0,6.0,89,0.00,,CLR,0.01,VWS V14.01,2013-08-07 14:05:00,
2013-08-07 09:10:00,61.5,57.9,29.88,NW,305,0.0,6.0,88,0.00,,CLR,0.01,VWS V14.01,2013-08-07 14:10:00,
2013-08-07 09:15:00,62.0,58.1,29.88,WNW,302,2.0,6.0,87,0.00,,CLR,0.01,VWS V14.01,2013-08-07 14:15:00,
2013-08-07 09:20:00,62.4,58.2,29.88,WNW,302,3.0,6.0,86,0.00,,CLR,0.01,VWS V14.01,2013-08-07 14:20:00,
2013-08-07 09:25:00,62.9,58.0,29.88,ENE,68,0.0,6.0,84,0.00,,CLR,0.01,VWS V14.01,2013-08-07 14:25:00,
2013-08-07 09:30:00,63.3,58.4,29.88,SE,128,0.0,3.0,84,0.00,,CLR,0.01,VWS V14.01,2013-08-07 14:30:00,
2013-08-07 09:35:00,63.7,58.1,29.88,WNW,295,1.0,4.0,82,0.00,,CLR,0.01,VWS V14.01,2013-08-07 14:35:00,
2013-08-07 09:40:00,63.8,57.5,29.89,NNE,33,0.0,4.0,80,0.00,,CLR,0.01,VWS V14.01,2013-08-07 14:40:00,
2013-08-07 09:45:00,64.0,57.4,29.89,West,269,2.0,4.0,79,0.00,,CLR,0.01,VWS V14.01,2013-08-07 14:45:00,
2013-08-07 09:50:00,64.0,57.4,29.89,NW,314,3.0,5.0,79,0.00,,CLR,0.01,VWS V14.01,2013-08-07 14:50:00,
2013-08-07 09:55:00,64.2,58.3,29.89,East,79,0.0,7.0,81,0.00,,CLR,0.01,VWS V14.01,2013-08-07 14:55:00,
2013-08-07 10:00:00,64.7,57.3,29.89,North,11,1.0,6.0,77,0.00,,CLR,0.01,VWS V14.01,2013-08-07 15:00:00,
2013-08-07 10:05:00,64.9,57.2,29.89,SE,143,0.0,6.0,76,0.00,,CLR,0.01,VWS V14.01,2013-08-07 15:05:00,
2013-08-07 10:10:00,65.0,56.9,29.89,East,79,5.0,6.0,75,0.00,,CLR,0.01,VWS V14.01,2013-08-07 15:10:00,
2013-08-07 10:15:00,65.4,58.0,29.90,NE,49,4.0,6.0,77,0.00,,CLR,0.01,VWS V14.01,2013-08-07 15:15:00,
2013-08-07 10:20:00,65.8,56.9,29.90,NNW,345,4.0,6.0,73,0.00,,CLR,0.01,VWS V14.01,2013-08-07 15:20:00,
2013-08-07 10:25:00,66.2,57.7,29.90,WNW,284,1.0,6.0,74,0.00,,CLR,0.01,VWS V14.01,2013-08-07 15:25:00,
2013-08-07 10:30:00,66.4,57.9,29.90,North,1,1.0,4.0,74,0.00,,CLR,0.01,VWS V14.01,2013-08-07 15:30:00,
2013-08-07 10:35:00,66.7,57.0,29.90,NE,36,1.0,7.0,71,0.00,,CLR,0.01,VWS V14.01,2013-08-07 15:35:00,
2013-08-07 10:40:00,66.6,56.9,29.90,NW,312,0.0,9.0,71,0.00,,CLR,0.01,VWS V14.01,2013-08-07 15:40:00,
2013-08-07 10:45:00,66.9,58.0,29.91,NE,53,2.0,9.0,73,0.00,,CLR,0.01,VWS V14.01,2013-08-07 15:45:00,
2013-08-07 10:50:00,67.1,57.0,29.91,NW,308,0.0,9.0,70,0.00,,CLR,0.01,VWS V14.01,2013-08-07 15:50:00,
2013-08-07 10:51:00,67.2,57.9,29.91,WNW,297,0.0,9.0,72,0.00,,CLR,0.01,VWS V14.01,2013-08-07 15:51:00,
2013-08-07 10:56:00,67.6,57.5,29.91,NNE,23,6.0,9.0,70,0.00,,CLR,0.01,VWS V14.01,2013-08-07 15:56:00,
2013-08-07 11:01:00,67.2,56.3,29.91,WNW,297,2.0,6.0,68,0.00,,CLR,0.01,VWS V14.01,2013-08-07 16:01:00,
2013-08-07 11:06:00,67.2,55.5,29.91,NE,38,3.0,7.0,66,0.00,,CLR,0.01,VWS V14.01,2013-08-07 16:06:00,
2013-08-07 11:11:00,67.3,55.2,29.92,SE,131,0.0,7.0,65,0.00,,CLR,0.01,VWS V14.01,2013-08-07 16:11:00,
2013-08-07 11:16:00,67.5,55.3,29.92,North,4,9.0,9.0,65,0.00,,CLR,0.01,VWS V14.01,2013-08-07 16:16:00,
2013-08-07 11:21:00,67.6,55.4,29.92,ESE,110,1.0,9.0,65,0.00,,CLR,0.01,VWS V14.01,2013-08-07 16:21:00,
2013-08-07 11:26:00,68.1,55.5,29.92,NNW,333,0.0,9.0,64,0.00,,CLR,0.01,VWS V14.01,2013-08-07 16:26:00,
2013-08-07 11:31:00,68.5,55.0,29.92,East,82,2.0,3.0,62,0.00,,CLR,0.01,VWS V14.01,2013-08-07 16:31:00,
2013-08-07 11:36:00,69.1,57.3,29.92,East,84,1.0,3.0,66,0.00,,CLR,0.01,VWS V14.01,2013-08-07 16:36:00,
2013-08-07 11:41:00,69.7,57.4,29.92,NNE,15,3.0,5.0,65,0.00,,CLR,0.01,VWS V14.01,2013-08-07 16:41:00,
2013-08-07 11:46:00,69.6,55.6,29.93,NE,54,5.0,6.0,61,0.00,,CLR,0.01,VWS V14.01,2013-08-07 16:46:00,
2013-08-07 11:51:00,69.4,56.3,29.93,ENE,65,0.0,6.0,63,0.00,,CLR,0.01,VWS V14.01,2013-08-07 16:51:00,
2013-08-07 11:56:00,69.7,56.1,29.93,ESE,105,1.0,7.0,62,0.00,,CLR,0.01,VWS V14.01,2013-08-07 16:56:00,
2013-08-07 12:01:00,69.5,53.1,29.93,NE,36,0.0,5.0,56,0.00,,CLR,0.01,VWS V14.01,2013-08-07 17:01:00,
2013-08-07 12:06:00,69.9,55.8,29.93,East,98,2.0,5.0,61,0.00,,CLR,0.01,VWS V14.01,2013-08-07 17:06:00,
2013-08-07 12:11:00,70.3,55.3,29.93,NE,53,0.0,5.0,59,0.00,,CLR,0.01,VWS V14.01,2013-08-07 17:11:00,
2013-08-07 12:16:00,70.2,54.8,29.93,NW,304,3.0,6.0,58,0.00,,CLR,0.01,VWS V14.01,2013-08-07 17:16:00,
2013-08-07 12:21:00,69.7,53.8,29.93,NW,304,2.0,6.0,57,0.00,,CLR,0.01,VWS V14.01,2013-08-07 17:21:00,
2013-08-07 12:26:00,70.1,55.1,29.93,NW,325,1.0,6.0,59,0.00,,CLR,0.01,VWS V14.01,2013-08-07 17:26:00,
2013-08-07 12:31:00,70.4,55.4,29.93,West,281,0.0,6.0,59,0.00,,CLR,0.01,VWS V14.01,2013-08-07 17:31:00,
2013-08-07 12:36:00,70.3,54.8,29.94,WNW,285,1.0,7.0,58,0.00,,CLR,0.01,VWS V14.01,2013-08-07 17:36:00,
2013-08-07 12:41:00,70.3,54.8,29.93,WNW,302,0.0,7.0,58,0.00,,CLR,0.01,VWS V14.01,2013-08-07 17:41:00,
2013-08-07 12:46:00,70.6,54.2,29.94,NNW,344,2.0,7.0,56,0.00,,CLR,0.01,VWS V14.01,2013-08-07 17:46:00,
2013-08-07 12:51:00,71.0,55.5,29.94,NNW,343,0.0,7.0,58,0.00,,CLR,0.01,VWS V14.01,2013-08-07 17:51:00,
2013-08-07 12:56:00,71.4,54.4,29.94,NE,47,3.0,7.0,55,0.00,,CLR,0.01,VWS V14.01,2013-08-07 17:56:00,
2013-08-07 13:01:00,71.6,54.1,29.94,NW,304,2.0,5.0,54,0.00,,CLR,0.01,VWS V14.01,2013-08-07 18:01:00,
2013-08-07 13:06:00,71.8,53.8,29.93,WNW,296,1.0,5.0,53,0.00,,CLR,0.01,VWS V14.01,2013-08-07 18:06:00,
2013-08-07 13:11:00,71.9,54.4,29.93,NNW,343,4.0,5.0,54,0.00,,CLR,0.01,VWS V14.01,2013-08-07 18:11:00,
2013-08-07 13:16:00,72.0,53.4,29.93,NE,41,2.0,6.0,52,0.00,,CLR,0.01,VWS V14.01,2013-08-07 18:16:00,
2013-08-07 13:21:00,71.9,54.4,29.93,WNW,287,2.0,6.0,54,0.00,,CLR,0.01,VWS V14.01,2013-08-07 18:21:00,
2013-08-07 13:26:00,72.0,55.0,29.93,NNE,23,1.0,6.0,55,0.00,,CLR,0.01,VWS V14.01,2013-08-07 18:26:00,
2013-08-07 13:31:00,71.7,53.7,29.93,NNE,21,0.0,5.0,53,0.00,,CLR,0.01,VWS V14.01,2013-08-07 18:31:00,
2013-08-07 13:36:00,72.1,55.1,29.93,NW,321,3.0,5.0,55,0.00,,CLR,0.01,VWS V14.01,2013-08-07 18:36:00,
2013-08-07 13:41:00,72.4,54.8,29.93,WNW,296,4.0,7.0,54,0.00,,CLR,0.01,VWS V14.01,2013-08-07 18:41:00,
2013-08-07 13:46:00,72.1,56.0,29.93,North,349,3.0,7.0,57,0.00,,CLR,0.01,VWS V14.01,2013-08-07 18:46:00,
2013-08-07 13:51:00,72.2,54.7,29.93,West,280,1.0,7.0,54,0.00,,CLR,0.01,VWS V14.01,2013-08-07 18:51:00,
2013-08-07 13:56:00,72.5,54.4,29.93,West,276,1.0,7.0,53,0.00,,CLR,0.01,VWS V14.01,2013-08-07 18:56:00,
2013-08-07 14:01:00,72.8,54.7,29.93,NW,304,2.0,3.0,53,0.00,,CLR,0.01,VWS V14.01,2013-08-07 19:01:00,
2013-08-07 14:06:00,72.9,53.7,29.93,NNW,345,2.0,3.0,51,0.00,,CLR,0.01,VWS V14.01,2013-08-07 19:06:00,
2013-08-07 14:11:00,72.8,55.7,29.93,NE,56,1.0,4.0,55,0.00,,CLR,0.01,VWS V14.01,2013-08-07 19:11:00,
2013-08-07 14:16:00,72.9,55.3,29.93,ESE,110,2.0,4.0,54,0.00,,CLR,0.01,VWS V14.01,2013-08-07 19:16:00,
2013-08-07 14:21:00,72.9,54.3,29.93,WSW,240,1.0,5.0,52,0.00,,CLR,0.01,VWS V14.01,2013-08-07 19:21:00,
2013-08-07 14:26:00,72.9,53.7,29.93,NNW,339,3.0,5.0,51,0.00,,CLR,0.01,VWS V14.01,2013-08-07 19:26:00,
2013-08-07 14:31:00,73.4,54.7,29.93,NW,314,3.0,3.0,52,0.00,,CLR,0.01,VWS V14.01,2013-08-07 19:31:00,
2013-08-07 14:36:00,73.4,53.1,29.93,WNW,284,2.0,4.0,49,0.00,,CLR,0.01,VWS V14.01,2013-08-07 19:36:00,
2013-08-07 14:41:00,73.3,54.1,29.93,NW,311,2.0,4.0,51,0.00,,CLR,0.01,VWS V14.01,2013-08-07 19:41:00,
2013-08-07 14:46:00,73.1,52.8,29.93,WNW,293,0.0,4.0,49,0.00,,CLR,0.01,VWS V14.01,2013-08-07 19:46:00,
2013-08-07 14:51:00,73.2,55.1,29.92,NE,50,1.0,4.0,53,0.00,,CLR,0.01,VWS V14.01,2013-08-07 19:51:00,
2013-08-07 14:56:00,73.6,54.4,29.93,NNE,30,2.0,6.0,51,0.00,,CLR,0.01,VWS V14.01,2013-08-07 19:56:00,
2013-08-07 15:01:00,73.5,53.2,29.92,North,354,0.0,3.0,49,0.00,,CLR,0.01,VWS V14.01,2013-08-07 20:01:00,
2013-08-07 15:06:00,73.3,52.5,29.92,West,259,5.0,6.0,48,0.00,,CLR,0.01,VWS V14.01,2013-08-07 20:06:00,
2013-08-07 15:11:00,73.1,55.0,29.92,NNW,337,1.0,6.0,53,0.00,,CLR,0.01,VWS V14.01,2013-08-07 20:11:00,
2013-08-07 15:16:00,74.0,54.2,29.92,NW,321,3.0,6.0,50,0.00,,CLR,0.01,VWS V14.01,2013-08-07 20:16:00,
2013-08-07 15:21:00,74.1,54.3,29.92,East,98,3.0,6.0,50,0.00,,CLR,0.01,VWS V14.01,2013-08-07 20:21:00,
2013-08-07 15:26:00,74.3,52.8,29.92,ESE,115,2.0,6.0,47,0.00,,CLR,0.01,VWS V14.01,2013-08-07 20:26:00,
2013-08-07 15:31:00,74.1,52.6,29.92,WSW,256,0.0,6.0,47,0.00,,CLR,0.01,VWS V14.01,2013-08-07 20:31:00,
2013-08-07 15:36:00,74.5,54.7,29.92,West,281,2.0,6.0,50,0.00,,CLR,0.01,VWS V14.01,2013-08-07 20:36:00,
2013-08-07 15:41:00,74.6,54.2,29.92,WSW,248,1.0,6.0,49,0.00,,CLR,0.01,VWS V14.01,2013-08-07 20:41:00,
2013-08-07 15:46:00,74.5,53.0,29.92,East,89,1.0,7.0,47,0.00,,CLR,0.01,VWS V14.01,2013-08-07 20:46:00,
2013-08-07 15:51:00,74.3,54.5,29.92,SSW,193,0.0,7.0,50,0.00,,CLR,0.01,VWS V14.01,2013-08-07 20:51:00,
2013-08-07 15:56:00,74.9,54.5,29.92,ESE,122,1.0,7.0,49,0.00,,CLR,0.01,VWS V14.01,2013-08-07 20:56:00,
2013-08-07 16:01:00,74.9,53.9,29.92,West,281,3.0,3.0,48,0.00,,CLR,0.01,VWS V14.01,2013-08-07 21:01:00,
2013-08-07 16:06:00,74.8,53.8,29.92,WNW,300,2.0,4.0,48,0.00,,CLR,0.01,VWS V14.01,2013-08-07 21:06:00,
2013-08-07 16:11:00,74.3,53.9,29.92,NW,308,1.0,8.0,49,0.00,,CLR,0.01,VWS V14.01,2013-08-07 21:11:00,
2013-08-07 16:16:00,74.6,54.2,29.92,West,278,1.0,8.0,49,0.00,,CLR,0.01,VWS V14.01,2013-08-07 21:16:00,
2013-08-07 16:21:00,74.7,54.3,29.92,WNW,296,1.0,8.0,49,0.00,,CLR,0.01,VWS V14.01,2013-08-07 21:21:00,
2013-08-07 16:26:00,75.2,54.8,29.92,NW,305,2.0,8.0,49,0.00,,CLR,0.01,VWS V14.01,2013-08-07 21:26:00,
2013-08-07 16:31:00,75.5,55.0,29.92,West,264,2.0,4.0,49,0.00,,CLR,0.01,VWS V14.01,2013-08-07 21:31:00,
2013-08-07 16:36:00,75.6,55.1,29.92,NW,305,2.0,5.0,49,0.00,,SCT070,0.01,VWS V14.01,2013-08-07 21:36:00,
2013-08-07 16:41:00,75.6,54.5,29.92,West,269,2.0,5.0,48,0.00,,SCT070,0.01,VWS V14.01,2013-08-07 21:41:00,
2013-08-07 16:46:00,75.2,54.8,29.92,NW,319,2.0,5.0,49,0.00,,SCT070,0.01,VWS V14.01,2013-08-07 21:46:00,
2013-08-07 16:51:00,75.5,54.5,29.92,WNW,302,2.0,5.0,48,0.00,,SCT070,0.01,VWS V14.01,2013-08-07 21:51:00,
2013-08-07 16:56:00,75.4,56.6,29.92,West,277,0.0,5.0,52,0.00,,SCT070,0.01,VWS V14.01,2013-08-07 21:56:00,
2013-08-07 17:01:00,76.1,55.6,29.91,NW,314,0.0,2.0,49,0.00,,SCT070,0.01,VWS V14.01,2013-08-07 22:01:00,
2013-08-07 17:06:00,75.7,54.6,29.91,WNW,293,2.0,11.0,48,0.00,,SCT070,0.01,VWS V14.01,2013-08-07 22:06:00,
2013-08-07 17:11:00,75.7,55.2,29.92,WNW,298,1.0,11.0,49,0.00,,SCT070,0.01,VWS V14.01,2013-08-07 22:11:00,
2013-08-07 17:16:00,75.5,54.5,29.92,WNW,299,2.0,11.0,48,0.00,,SCT070,0.01,VWS V14.01,2013-08-07 22:16:00,
2013-08-07 17:21:00,75.5,55.0,29.92,NNW,342,0.0,11.0,49,0.00,,SCT070,0.01,VWS V14.01,2013-08-07 22:21:00,
2013-08-07 17:25:00,75.2,53.6,29.92,WNW,302,2.0,11.0,47,0.00,,SCT070,0.01,VWS V14.01,2013-08-07 22:25:00,
2013-08-07 17:31:00,75.0,53.4,29.92,West,277,4.0,5.0,47,0.00,,SCT070,0.01,VWS V14.01,2013-08-07 22:31:00,
2013-08-07 17:35:00,74.8,52.7,29.92,WNW,293,2.0,5.0,46,0.00,,BKN065,0.01,VWS V14.01,2013-08-07 22:35:00,
2013-08-07 17:40:00,74.9,54.5,29.92,West,281,2.0,5.0,49,0.00,,BKN065,0.01,VWS V14.01,2013-08-07 22:40:00,
2013-08-07 17:45:00,75.4,53.2,29.92,WNW,301,1.0,5.0,46,0.00,,BKN065,0.01,VWS V14.01,2013-08-07 22:45:00,
2013-08-07 17:50:00,75.6,52.8,29.92,West,277,1.0,5.0,45,0.00,,SCT050,0.01,VWS V14.01,2013-08-07 22:50:00,
2013-08-07 17:55:00,75.5,53.3,29.92,NW,318,2.0,5.0,46,0.00,,SCT050,0.01,VWS V14.01,2013-08-07 22:55:00,
2013-08-07 18:00:00,75.4,51.4,29.92,WNW,300,1.0,4.0,43,0.00,,SCT050,0.01,VWS V14.01,2013-08-07 23:00:00,
2013-08-07 18:05:00,75.3,51.9,29.92,NW,308,0.0,4.0,44,0.00,,SCT050,0.01,VWS V14.01,2013-08-07 23:05:00,
2013-08-07 18:10:00,75.4,52.0,29.92,WNW,302,2.0,4.0,44,0.00,,SCT050,0.01,VWS V14.01,2013-08-07 23:10:00,
2013-08-07 18:15:00,75.2,50.6,29.92,WNW,300,0.0,4.0,42,0.00,,SCT050,0.01,VWS V14.01,2013-08-07 23:15:00,
2013-08-07 18:20:00,75.0,50.4,29.92,West,281,1.0,6.0,42,0.00,,SCT050,0.01,VWS V14.01,2013-08-07 23:20:00,
2013-08-07 18:25:00,74.8,50.8,29.92,NW,311,4.0,6.0,43,0.00,,SCT050,0.01,VWS V14.01,2013-08-07 23:25:00,
2013-08-07 18:30:00,74.6,50.0,29.92,West,269,0.0,4.0,42,0.00,,SCT050,0.01,VWS V14.01,2013-08-07 23:30:00,
2013-08-07 18:35:00,74.4,50.5,29.93,NW,325,2.0,5.0,43,0.00,,CLR,0.01,VWS V14.01,2013-08-07 23:35:00,
2013-08-07 18:40:00,74.5,50.6,29.92,West,280,0.0,5.0,43,0.00,,CLR,0.01,VWS V14.01,2013-08-07 23:40:00,
2013-08-07 18:45:00,74.6,51.3,29.92,WNW,291,0.0,5.0,44,0.00,,CLR,0.01,VWS V14.01,2013-08-07 23:45:00,
2013-08-07 18:50:00,74.5,51.8,29.92,NW,307,0.0,5.0,45,0.00,,CLR,0.01,VWS V14.01,2013-08-07 23:50:00,
2013-08-07 18:55:00,74.5,51.8,29.92,NW,305,0.0,5.0,45,0.00,,CLR,0.01,VWS V14.01,2013-08-07 23:55:00,
2013-08-07 19:00:00,74.3,51.6,29.92,WNW,297,2.0,2.0,45,0.00,,CLR,0.01,VWS V14.01,2013-08-08 00:00:00,
2013-08-07 19:05:00,74.1,52.0,29.92,West,273,1.0,2.0,46,0.00,,CLR,0.01,VWS V14.01,2013-08-08 00:05:00,
2013-08-07 19:10:00,73.9,52.4,29.92,NW,325,0.0,3.0,47,0.00,,CLR,0.01,VWS V14.01,2013-08-08 00:10:00,
2013-08-07 19:15:00,74.0,53.1,29.92,WSW,254,0.0,3.0,48,0.00,,CLR,0.01,VWS V14.01,2013-08-08 00:15:00,
2013-08-07 19:20:00,74.1,52.6,29.92,SSW,196,0.0,3.0,47,0.00,,CLR,0.01,VWS V14.01,2013-08-08 00:20:00,
2013-08-07 19:25:00,73.5,52.1,29.92,ENE,78,0.0,3.0,47,0.00,,CLR,0.01,VWS V14.01,2013-08-08 00:25:00,
2013-08-07 19:30:00,72.6,52.4,29.92,West,269,0.0,1.0,49,0.00,,CLR,0.01,VWS V14.01,2013-08-08 00:30:00,
2013-08-07 19:35:00,71.7,52.1,29.92,North,11,0.0,1.0,50,0.00,,CLR,0.01,VWS V14.01,2013-08-08 00:35:00,
2013-08-07 19:40:00,70.9,51.3,29.92,NW,308,0.0,2.0,50,0.00,,CLR,0.01,VWS V14.01,2013-08-08 00:40:00,
2013-08-07 19:45:00,70.2,52.8,29.93,ESE,111,0.0,2.0,54,0.00,,CLR,0.01,VWS V14.01,2013-08-08 00:45:00,
2013-08-07 19:50:00,69.7,52.8,29.93,ESE,112,0.0,2.0,55,0.00,,CLR,0.01,VWS V14.01,2013-08-08 00:50:00,
2013-08-07 19:55:00,69.2,52.8,29.93,ESE,112,0.0,2.0,56,0.00,,CLR,0.01,VWS V14.01,2013-08-08 00:55:00,
2013-08-07 20:00:00,68.6,52.8,29.93,ESE,111,0.0,0.0,57,0.00,,CLR,0.01,VWS V14.01,2013-08-08 01:00:00,
2013-08-07 20:05:00,68.1,52.8,29.93,ESE,112,0.0,0.0,58,0.00,,CLR,0.01,VWS V14.01,2013-08-08 01:05:00,
2013-08-07 20:10:00,67.6,52.8,29.93,ESE,111,0.0,0.0,59,0.00,,CLR,0.01,VWS V14.01,2013-08-08 01:10:00,
2013-08-07 20:15:00,67.2,52.9,29.93,ESE,111,0.0,0.0,60,0.00,,CLR,0.01,VWS V14.01,2013-08-08 01:15:00,
2013-08-07 20:20:00,66.8,52.9,29.93,ESE,111,0.0,0.0,61,0.00,,CLR,0.01,VWS V14.01,2013-08-08 01:20:00,
2013-08-07 20:25:00,66.3,53.3,29.93,ESE,111,0.0,0.0,63,0.00,,CLR,0.01,VWS V14.01,2013-08-08 01:25:00,
2013-08-07 20:30:00,65.9,53.8,29.94,ESE,111,0.0,0.0,65,0.00,,CLR,0.01,VWS V14.01,2013-08-08 01:30:00,
2013-08-07 20:35:00,65.4,53.8,29.94,ESE,111,0.0,0.0,66,0.00,,CLR,0.01,VWS V14.01,2013-08-08 01:35:00,
2013-08-07 20:40:00,64.9,53.7,29.94,ESE,111,0.0,0.0,67,0.00,,CLR,0.01,VWS V14.01,2013-08-08 01:40:00,
2013-08-07 20:45:00,64.4,54.0,29.94,ESE,112,0.0,0.0,69,0.00,,CLR,0.01,VWS V14.01,2013-08-08 01:45:00,
2013-08-07 20:50:00,64.1,53.3,29.95,ESE,112,0.0,0.0,68,0.00,,CLR,0.01,VWS V14.01,2013-08-08 01:50:00,
2013-08-07 20:55:00,64.0,53.2,29.95,ESE,112,0.0,0.0,68,0.00,,CLR,0.01,VWS V14.01,2013-08-08 01:55:00,
2013-08-07 21:00:00,64.0,53.2,29.95,ESE,111,0.0,0.0,68,0.00,,CLR,0.01,VWS V14.01,2013-08-08 02:00:00,
2013-08-07 21:05:00,63.6,53.7,29.95,ESE,111,0.0,0.0,70,0.00,,CLR,0.01,VWS V14.01,2013-08-08 02:05:00,
2013-08-07 21:10:00,63.0,53.8,29.95,ESE,111,0.0,0.0,72,0.00,,CLR,0.01,VWS V14.01,2013-08-08 02:10:00,
2013-08-07 21:15:00,62.6,53.5,29.95,ESE,112,0.0,0.0,72,0.00,,CLR,0.01,VWS V14.01,2013-08-08 02:15:00,
2013-08-07 21:20:00,62.2,53.5,29.96,ESE,112,0.0,0.0,73,0.00,,CLR,0.01,VWS V14.01,2013-08-08 02:20:00,
2013-08-07 21:25:00,61.9,52.8,29.96,ESE,112,0.0,0.0,72,0.00,,CLR,0.01,VWS V14.01,2013-08-08 02:25:00,
2013-08-07 21:30:00,61.6,53.2,29.96,ESE,112,0.0,0.0,74,0.00,,CLR,0.01,VWS V14.01,2013-08-08 02:30:00,
2013-08-07 21:35:00,61.6,53.2,29.96,ESE,112,0.0,0.0,74,0.00,,SCT120,0.01,VWS V14.01,2013-08-08 02:35:00,
2013-08-07 21:40:00,61.4,52.7,29.96,ESE,112,0.0,0.0,73,0.00,,SCT120,0.01,VWS V14.01,2013-08-08 02:40:00,
2013-08-07 21:45:00,61.3,53.3,29.96,ESE,111,0.0,0.0,75,0.00,,SCT120,0.01,VWS V14.01,2013-08-08 02:45:00,
2013-08-07 21:50:00,61.3,53.7,29.96,ESE,111,0.0,0.0,76,0.00,,SCT120,0.01,VWS V14.01,2013-08-08 02:50:00,
2013-08-07 21:55:00,61.1,53.5,29.96,ESE,111,0.0,0.0,76,0.00,,SCT120,0.01,VWS V14.01,2013-08-08 02:55:00,
2013-08-07 22:00:00,60.7,53.1,29.96,ESE,111,0.0,0.0,76,0.00,,SCT120,0.01,VWS V14.01,2013-08-08 03:00:00,
2013-08-07 22:05:00,60.3,53.1,29.96,ESE,112,0.0,0.0,77,0.00,,SCT120,0.01,VWS V14.01,2013-08-08 03:05:00,
2013-08-07 22:10:00,60.1,53.9,29.96,ESE,111,0.0,0.0,80,0.00,,SCT120,0.01,VWS V14.01,2013-08-08 03:10:00,
2013-08-07 22:15:00,60.0,54.5,29.96,ESE,111,0.0,0.0,82,0.00,,SCT120,0.01,VWS V14.01,2013-08-08 03:15:00,
2013-08-07 22:20:00,59.9,55.4,29.97,ESE,112,0.0,0.0,85,0.00,,SCT120,0.01,VWS V14.01,2013-08-08 03:20:00,
2013-08-07 22:25:00,59.9,55.1,29.97,ESE,111,0.0,0.0,84,0.00,,SCT120,0.01,VWS V14.01,2013-08-08 03:25:00,
2013-08-07 22:30:00,60.1,55.3,29.97,ESE,111,1.0,1.0,84,0.00,,SCT120,0.01,VWS V14.01,2013-08-08 03:30:00,
2013-08-07 22:35:00,60.0,55.2,29.97,ESE,111,0.0,1.0,84,0.00,,SCT120,0.01,VWS V14.01,2013-08-08 03:35:00,
2013-08-07 22:40:00,59.9,55.1,29.97,ESE,111,0.0,1.0,84,0.00,,SCT120,0.01,VWS V14.01,2013-08-08 03:40:00,
2013-08-07 22:45:00,59.5,54.7,29.97,ESE,112,0.0,1.0,84,0.00,,SCT120,0.01,VWS V14.01,2013-08-08 03:45:00,
2013-08-07 22:50:00,59.1,54.6,29.97,ESE,111,0.0,1.0,85,0.00,,BKN120,0.01,VWS V14.01,2013-08-08 03:50:00,
2013-08-07 22:55:00,58.6,54.1,29.97,ESE,112,0.0,1.0,85,0.00,,BKN120,0.01,VWS V14.01,2013-08-08 03:55:00,
2013-08-07 23:00:00,58.3,53.5,29.97,ESE,111,0.0,0.0,84,0.00,,BKN120,0.01,VWS V14.01,2013-08-08 04:00:00,
2013-08-07 23:01:00,58.3,53.5,29.97,ESE,111,0.0,0.0,84,0.00,,BKN120,0.01,VWS V14.01,2013-08-08 04:01:00,
2013-08-07 23:02:00,58.2,53.4,29.98,ESE,111,0.0,0.0,84,0.00,,BKN120,0.01,VWS V14.01,2013-08-08 04:02:00,
2013-08-07 23:07:00,58.1,53.3,29.97,ESE,111,0.0,0.0,84,0.00,,BKN120,0.01,VWS V14.01,2013-08-08 04:07:00,
2013-08-07 23:12:00,57.9,53.4,29.97,ESE,111,0.0,0.0,85,0.00,,BKN120,0.01,VWS V14.01,2013-08-08 04:12:00,
2013-08-07 23:17:00,57.7,52.9,29.97,ESE,111,0.0,0.0,84,0.00,,BKN120,0.01,VWS V14.01,2013-08-08 04:17:00,
2013-08-07 23:22:00,57.5,52.7,29.97,ESE,111,0.0,0.0,84,0.00,,BKN120,0.01,VWS V14.01,2013-08-08 04:22:00,
2013-08-07 23:27:00,57.8,53.3,29.97,ESE,111,0.0,0.0,85,0.00,,BKN120,0.01,VWS V14.01,2013-08-08 04:27:00,
2013-08-07 23:32:00,57.8,53.0,29.97,ESE,111,0.0,0.0,84,0.00,,BKN120,0.01,VWS V14.01,2013-08-08 04:32:00,
2013-08-07 23:37:00,57.6,52.8,29.97,ESE,110,0.0,0.0,84,0.00,,BKN120,0.01,VWS V14.01,2013-08-08 04:37:00,
2013-08-07 23:42:00,57.4,53.2,29.97,ESE,111,0.0,0.0,86,0.00,,BKN120,0.01,VWS V14.01,2013-08-08 04:42:00,
2013-08-07 23:47:00,57.1,53.0,29.97,ESE,111,0.0,0.0,86,0.00,,BKN120,0.01,VWS V14.01,2013-08-08 04:47:00,
2013-08-07 23:52:00,56.9,53.1,29.97,ESE,111,0.0,0.0,87,0.00,,BKN120,0.01,VWS V14.01,2013-08-08 04:52:00,
2013-08-07 23:57:00,56.9,53.4,29.97,ESE,112,0.0,0.0,88,0.00,,BKN120,0.01,VWS V14.01,2013-08-08 04:57:00,